Location: Camden Lake
(44.4269°N, 76.8469°W)
Time: 02:52:01
(UTC-05:00)

Daily predictions for brighter satellites

Satellite Brightness Start Highest point End
(mag) Time Altitude Azimuth Time Altitude Azimuth Time Altitude Azimuth
Cosmos 2237 Rocket 3.9 03:57:43 25° NNE 03:57:43 25° NNE 04:00:00 10° NNE
Cosmos 2333 Rocket 4.2 04:06:33 19° N 04:06:33 19° N 04:08:09 10° NNE
Cosmos 2219 Rocket 4.3 04:20:20 15° N 04:20:20 15° N 04:21:26 10° N
Atlas Centaur 2 4.1 04:16:09 27° S 04:16:36 27° S 04:23:21 10° SE
USA 267 4.4 04:12:49 10° ENE 04:18:16 29° N 04:18:50 29° N
SL-08 R/B 4.5 04:19:44 36° N 04:22:37 83° E 04:29:00 10° S
Lacrosse 5 rocket 2.8 04:23:56 39° ESE 04:23:56 39° ESE 04:28:04 10° ENE
SL-16 R/B 2.2 04:29:36 72° SSE 04:30:04 78° ESE 04:35:47 10° NNE
NOSS 3-1 (C) 4.5 04:26:35 30° NNW 04:30:24 57° NE 04:38:35 10° SE
Cosmos 1725 Rocket 3.9 04:26:52 10° N 04:33:06 85° E 04:39:16 10° S
Cosmos 2123 Rocket 4.0 04:27:12 10° S 04:33:25 83° E 04:39:44 10° N
Okean O Rocket 4.1 04:41:03 10° N 04:41:20 12° N 04:41:20 12° N
CZ-4B R/B 3.1 04:44:29 10° NNE 04:50:11 77° WNW 04:55:49 10° SSW
Meteor 1-26 Rocket 4.0 04:48:03 35° NNW 04:50:31 82° W 04:56:09 10° S
Cosmos 1933 Rocket 4.5 04:52:15 37° N 04:52:15 37° N 04:54:57 10° N
USA 229 DEB 3.7 04:49:11 45° NW 04:51:37 73° WSW 04:58:54 10° SSE
Cosmos 1503 Rocket 3.8 04:51:37 72° WSW 04:51:40 73° WSW 04:56:48 10° SSE
USA 229 3.7 04:49:15 44° NW 04:51:43 73° WSW 04:59:00 10° SSE
Cosmos 2369 Rocket 3.6 04:48:58 12° N 04:53:41 34° NE 04:58:44 10° ESE
Cosmos 2297 3.9 04:54:23 50° SW 04:54:23 50° SW 04:59:19 10° S
CZ-2C R/B 3.5 04:49:32 10° SSE 04:54:02 88° WSW 04:54:19 79° NNW
NOSS 3-1 (A) 4.5 04:49:47 22° NNW 04:54:53 59° NE 05:03:07 10° SE
COSMO-SKYMED 1 3.4 04:52:20 10° SE 04:56:30 49° ENE 05:00:30 11° N
Cosmos 2084 Rocket 3.7 04:57:56 53° SSE 04:57:56 53° SSE 05:00:58 10° SSE
Cosmos 1408 4.0 04:56:52 10° SSE 05:00:21 40° E 05:03:54 10° NNE
IRS-1C Rocket 3.9 04:55:42 10° N 05:00:57 71° WNW 05:06:10 10° SSW
SJ-6F 4.3 04:57:32 10° N 05:01:42 84° WNW 05:02:04 72° SW
Meteor 2-12 Rocket 4.3 04:56:28 13° NNW 05:01:45 63° W 05:07:43 10° S
USA 116 4.4 04:57:04 10° SSE 05:02:22 82° WSW 05:07:09 14° NNW
Cosmos 968 Rocket 3.9 04:59:38 17° NNW 05:03:40 62° ENE 05:08:52 10° SSE
IDEFIX/ARIANE 42P 3.9 05:01:43 10° NNE 05:06:36 41° E 05:11:27 10° SSE
PAYLOAD B 4.5 05:07:07 10° N 05:12:23 44° WNW 05:13:29 39° W
MTI 4.4 05:14:13 10° S 05:16:33 45° S 05:16:33 45° S
Meteor 1-28 Rocket 4.2 05:15:28 10° S 05:17:47 32° SSW 05:17:47 32° SSW
SKYMED 3 4.4 05:22:06 10° S 05:26:26 80° WSW 05:30:48 10° NNW
EO 1 Del DPAF 3.1 05:23:23 10° S 05:27:12 73° WSW 05:29:32 23° NNW
Cosmos 1464 Rocket 4.5 05:21:04 10° N 05:27:18 63° E 05:33:33 10° SSE
Meteor 2-6 Rocket 4.5 05:23:38 10° N 05:29:30 78° E 05:35:26 10° SSE
Landsat 4 4.4 05:26:05 10° SSW 05:28:54 35° SW 05:28:54 35° SW
Cosmos 1943 Rocket 3.3 05:26:50 10° NNW 05:32:15 43° ENE 05:37:37 10° SE
Okean 1-7 3.1 05:27:55 10° N 05:32:20 80° E 05:36:42 10° S
USA 32 4.2 05:33:11 10° SSW 05:38:13 48° W 05:43:18 10° N
Cosmos 2237 Rocket 3.7 05:39:35 17° NW 05:39:35 17° NW 05:42:54 10° N
Cosmos 1943 4.1 05:33:46 10° S 05:39:16 53° ESE 05:44:47 10° NE
Cosmos 2233 Rocket 4.2 05:37:44 10° NNW 05:43:30 44° W 05:49:15 10° SSW
CZ-4 R/B 4.5 05:41:43 10° NE 05:44:22 17° E 05:47:01 10° SE
SKYMED 2 3.7 05:40:19 10° S 05:44:31 51° W 05:48:47 10° NNW
Cosmos 2333 Rocket 4.1 05:48:34 11° NNW 05:48:34 11° NNW 05:50:04 10° NNW
Gbstr 26 Del rocket 4.1 05:46:28 21° NW 05:48:20 29° N 05:51:50 10° ENE
ATLAS 5 CENTAUR R/B 2.7 05:44:13 10° SSW 05:48:38 49° ESE 05:53:27 10° NE
Abrixas rocket 2.9 05:49:49 27° NW 05:51:04 41° N 05:54:08 10° E
Cosmos 1825 2.3 05:48:07 10° SSW 05:51:47 49° WNW 05:55:28 10° N
DELTA 2 R/B (1) 4.5 05:48:34 18° WSW 05:52:09 38° SSW 05:57:15 10° SE
DMSP B5D1-3 4.5 05:47:31 10° S 05:52:37 71° WSW 05:57:46 10° NNW
BREEZE-M DEB (TANK) 3.0 05:50:45 23° WNW 05:52:52 74° N 05:56:59 10° E
Meteor 1-27 Rocket 3.9 05:49:00 10° N 05:54:55 80° E 06:00:39 10° SSE
Cosmos 2221 Rocket 3.6 05:53:54 10° NNW 05:58:18 59° W 06:02:42 10° S
Intercosmos 25 3.7 05:56:50 15° NNW 05:59:19 38° W 06:03:14 10° SSW
Okean-O 3.0 05:56:00 10° N 06:00:11 42° WNW 06:04:21 10° SW
USA 267 4.1 05:54:16 10° E 06:00:16 40° NNE 06:06:10 10° NW
Meteor 2-3 Rocket 4.5 05:56:16 10° SW 06:01:17 30° WNW 06:06:17 10° N
Meteor 1-10 Rocket 4.4 05:56:32 10° NNW 06:02:20 56° W 06:08:06 10° S
Lacrosse 5 rocket 2.1 05:59:41 16° W 06:03:00 42° NNW 06:07:26 10° NE
SJ-12 4.1 06:00:00 10° NNE 06:04:08 79° ESE 06:08:14 10° S
Cosmos 1484 Rocket 4.1 06:03:55 10° NNE 06:07:50 47° E 06:11:41 10° S
Cosmos 1703 Rocket 4.4 06:06:30 10° NNW 06:10:13 28° W 06:13:54 10° SSW
Cosmos 1513 Rocket 4.4 06:05:09 10° NNW 06:11:13 71° W 06:17:13 10° S
Cosmos 1441 Rocket 3.3 06:08:19 10° NNW 06:12:01 53° W 06:15:40 10° S
Cosmos 1606 3.8 06:09:47 10° NW 06:12:52 24° W 06:15:59 10° SW
SL-16 R/B 3.5 06:11:34 13° W 06:14:52 20° NW 06:19:01 10° N
COSMOS 2441 4.3 06:11:48 10° N 06:16:45 80° WNW 06:21:37 10° SSW
Cosmos 1869 Rocket 4.1 06:13:03 10° SW 06:17:04 36° WNW 06:21:09 10° N
Cosmos 1777 Rocket 4.0 06:12:53 10° NNW 06:18:06 71° WSW 06:23:16 10° S
Cosmos 1603 4.0 06:13:55 10° SW 06:19:16 43° WNW 06:24:43 10° NNE
SMAP 3.7 06:18:13 10° NNE 06:22:51 61° E 06:27:26 10° S
Cosmos 1782 4.1 06:21:56 10° NW 06:24:51 20° W 06:27:45 10° SW
CZ-2C R/B 2.8 06:24:42 10° N 06:29:40 47° WNW 06:34:32 10° SW
ATLAS 2AS CENTAUR R/B 3.7 06:24:48 10° NNW 06:32:37 50° NE 06:39:54 10° ESE
COSMO-SKYMED 1 4.1 06:30:11 10° SW 06:32:56 16° W 06:35:43 10° NW
AQUARIUS 4.3 06:30:52 10° NNE 06:35:24 81° ESE 06:39:54 10° S
Cosmos 1408 4.3 06:33:34 10° WSW 06:35:41 14° WNW 06:37:50 10° NW
Cosmos 2369 Rocket 2.7 06:32:34 10° NW 06:37:44 39° WSW 06:42:53 10° S
Ariane Rocket 3.1 06:33:53 10° NNE 06:38:59 87° ESE 06:44:02 10° SSW
Cosmos 1634 Rocket 4.4 06:35:19 10° N 06:41:34 70° E 06:47:50 10° SSE
Cosmos 2034 Rocket 4.3 06:37:26 10° NNW 06:43:24 48° W 06:49:17 10° SSW
